BREEZE-M DEB, 41318

Orbit data source: Space-Track

BREEZE-M DEB, 41318 is space debris in HEO originally from a launch on Thu, 17 May 2012 UTC launched from the Tyuratam Missile And Space Complex (TTMTR). Debris objects in space refer to the collection of defunct objects orbiting the Earth. Examples of debris include non-operational satellites, rocket bodies, and fragments generated from explosions, collisions, or faulty payload assembly.

Loading next visibility...
BREEZE-M DEB details
Identifier
41318, 2012-026E
Orbit
HEO
Last TLE update4 days ago
Origin
Flag of CISKhrunichev (CIS)
ManufacturerKhrunichev
MissionSpacecraft
Bus & MotorUnknown
MassUnknown
Launch date (UTC)
2012-05-17 (13 years ago)
Launch vehicleUnknown
Launch site
Tyuratam Missile And Space Complex (TTMTR)
Object type
Payload
Rocket body
Debris
Shape & HBRUnknown
Radar Cross SectionRCS unknown

Expand to show TLE details & history

TLE from 4 days ago
0 BREEZE-M DEB
1 41318U 12026E   25009.86533185 -.00000089  00000-0  00000-0 0  9991
2 41318   9.8112 183.6491 4134828 319.1866  16.0847  1.76518972 57954
Epoch: 2025-01-09T20:46Z
Definitive object data (Epoch: 2025-01-09T20:46:04.671Z)
Latitude-0.00004°
Longitude122.49779°
Altitude11,886.459 km
Speed5.465 km/s
True Right ascension12h 14m 37s
True Declination0° 00' 00"
Sunlit
Object was in daylight at TLE epoch
Visualization TLE readout
Latitude4.98834°
Longitude-88.24723°
Altitude34,116.438 km
Speed2.43 km/s
Apparent Right ascension21h 43m 47s
Apparent Declination0° 47' 52"
Sunlit
Object is in daylight
Visualization observer readout
Local Sidereal Time03:29:31
Azimuth267.098° W
Elevation2.222°
Doppler factor1
Orbital elements
Apogee altitude34,503.413 km
Perigee altitude10,585.446 km
Semi-major axis28,922.566 km
Eccentricity0.4134828
Inclination9.8112°
RAAN183.6491°
Arg. of periapsis319.1866°
True anomaly40.51534°
Mean anomaly16.0847°
Eccentric anomaly26.74667°
Mean motion0.44125 °/min
BSTARUnknown
Orbital period815.86 mins
Loading maneuver chart data...
Loading historical data...
Loading historical data...
Loading historical data...
Loading historical data...
Loading historical data...
Loading historical data...
Loading historical data...

BREEZE-M DEB Visibility forecast

Observer location: undefined°, undefined

Span
Click to sort rows by Start time (UTC) header in descending order
Start Az.
Max El. time (UTC)
Max El. Az.
Max El.
End time (UTC)
End Az.
134 mins2025-01-14 08:11:40.305Z222.613° SW2025-01-14 09:08:40.305Z162.253° S22.725°2025-01-14 10:25:40.305Z103.733° ESE
|